Retour au catalogue

COSMOS 252 DEB

ActifLEO
NORAD 18431·DEBRIS·🇷🇺 Russia

Lancé Nov 1, 1968 depuis Baikonur Cosmodrome

Loading…

Prochains Passages (prochaines 24 heures)

TLE

FraisSource: Space-Track

Époque: Sep 14, 2026, 08:54 UTC

1 18431U 68097EJ  26257.37108020 -.00000210  00000-0 -29704-4 0  9991
2 18431  62.3496 210.4396 0849307 176.2792 184.5108 13.20498723460128

Suivez COSMOS 252 DEB en temps réel avec AllMySat

Download on the App Store